Location: Newark
(35.6799°N, 139.7636°E)
Time: 20:10:51
(UTC+00:00)

Explorer 7 - Pass Details

Date: 16 December 2019
Orbit: 485 x 679 km, 50.3° (Epoch: 24 January)

Event Time Altitude Azimuth Distance (km) Brightness Sun altitude
Rises 05:37:31 0° 272° (W) 2,943 11.1 17.1°
Reaches altitude 10° 05:40:16 10° 288° (WNW) 2,063 10.2 16.7°
Maximum altitude 05:43:59 22° 339° (NNW) 1,452 8.8 16.2°
Drops below altitude 10° 05:47:47 10° 30° (NNE) 2,113 9.3 15.6°
Sets 05:50:40 0° 46° (NE) 3,035 10.0 15.2°
